Location: Northam
(31.6525°S, 116.6655°E)
Time: 06:49:49
(UTC+08:00)

N. Korean satellite - Pass Details

Date: 16 May 2021
Orbit: 450 x 500 km, 97.2° (Epoch: 13 June)

Event Time Altitude Azimuth Distance (km) Brightness Sun altitude
Rises 18:20:52 0° 190° (S) 2,627 10.2 -12.2°
Reaches altitude 10° 18:23:32 10° 210° (SSW) 1,734 9.6 -12.8°
Maximum altitude 18:25:58 17° 251° (WSW) 1,351 9.6 -13.3°
Drops below altitude 10° 18:28:24 10° 292° (WNW) 1,716 10.8 -13.8°
Sets 18:31:01 0° 313° (NW) 2,586 11.4 -14.3°
